Alma, MI

12:26 AM EST on January 22, 2018 (GMT -0500)
Gratiot Community

Weather History for KAMN - December, 2012

Change the Weather History Date:

Monday, December 31, 2012

  Actual Average Record
Temperature  
Mean Temperature 28 °F -  
Max Temperature 35 °F 30 °F 60 °F (1965)
Min Temperature 22 °F 14 °F -8 °F (1976)
Degree Days  
Heating Degree Days 36    
Moisture  
Dew Point 23 °F    
Average Humidity 79    
Maximum Humidity 89    
Minimum Humidity 62    
Precipitation  
Precipitation 0.00 in - - ()
Sea Level Pressure  
Sea Level Pressure 29.96 in    
Wind  
Wind Speed 9 mph (WSW)    
Max Wind Speed 14 mph    
Max Gust Speed 21 mph    
Visibility 10 miles    
Events      
Averages and records for this station are not official NWS values.
T = Trace of Precipitation, MM = Missing Value Source: NWS Daily Summary

Daily Weather History Graph

Daily Weather History Graph

Search for Another Location

Airport or City:

Trip Planner

Search our weather history database for the weather conditions in past years. The results will help you decide how hot, cold, wet, or windy it might be!

Date:

Astronomy

Dec. 31, 2012 Rise Set
Actual Time 8:11 AM EST 5:13 PM EST
Civil Twilight 7:38 AM EST 5:45 PM EST
Nautical Twilight 7:02 AM EST 6:21 PM EST
Astronomical Twilight 6:28 AM EST 6:56 PM EST
Moon 8:49 PM EST (12/31) 9:46 AM EST (12/31)
Length of Visible Light 10h 06m
Length of Day
9h 02m
Waning Gibbous, 90% of the Moon is Illuminated
Dec 31
Waning Gibbous
Jan 4
Last Quarter
Jan 11
New
Jan 18
First Quarter
Jan 26
Full

Hourly Weather History & Observations

Time (EST) Temp. Windchill Dew Point Humidity Pressure Visibility Wind Dir Wind Speed Gust Speed Precip Events Conditions
12:14 AM 23.4 °F 13.5 °F 20.3 °F 88% 30.10 in 7.0 mi SSW 9.2 mph 16.1 mph N/A   Overcast
12:34 AM 23.0 °F 13.9 °F 19.9 °F 88% 30.09 in 7.0 mi SSW 8.1 mph - N/A   Scattered Clouds
12:54 AM 22.8 °F 13.6 °F 19.9 °F 89% 30.09 in 7.0 mi SSW 8.1 mph 17.3 mph N/A   Scattered Clouds
1:14 AM 23.0 °F 11.7 °F 20.1 °F 89% 30.07 in 7.0 mi SSW 11.5 mph 16.1 mph N/A   Overcast
1:34 AM 22.8 °F 12.9 °F 19.9 °F 89% 30.06 in 7.0 mi SSW 9.2 mph - N/A   Scattered Clouds
1:54 AM 22.6 °F 13.4 °F 19.8 °F 89% 30.05 in 7.0 mi SSW 8.1 mph - N/A   Clear
2:14 AM 22.8 °F 13.6 °F 20.1 °F 89% 30.04 in 7.0 mi SSW 8.1 mph - N/A   Clear
2:55 AM 23.9 °F 14.2 °F 20.7 °F 87% 30.02 in 7.0 mi SSW 9.2 mph - N/A   Clear
3:15 AM 23.9 °F 15.0 °F 20.5 °F 87% 30.01 in 7.0 mi South 8.1 mph - N/A   Clear
3:35 AM 24.3 °F 16.3 °F 20.7 °F 86% 30.01 in 10.0 mi SSW 6.9 mph - N/A   Clear
3:50 AM 25.2 °F 15.7 °F 20.8 °F 84% 30.00 in 10.0 mi South 9.2 mph - N/A   Clear
4:10 AM 25.7 °F 15.7 °F 20.8 °F 82% 29.99 in 10.0 mi SSW 10.4 mph - N/A   Clear
4:30 AM 25.7 °F 16.4 °F 20.8 °F 82% 29.98 in 10.0 mi South 9.2 mph - N/A   Clear
4:50 AM 25.5 °F 15.5 °F 20.8 °F 82% 29.97 in 10.0 mi SSW 10.4 mph - N/A   Clear
5:10 AM 25.7 °F 16.4 °F 20.8 °F 82% 29.96 in 10.0 mi South 9.2 mph - N/A   Clear
5:31 AM 26.1 °F 16.8 °F 20.8 °F 81% 29.95 in 10.0 mi SSW 9.2 mph - N/A   Clear
5:51 AM 26.1 °F 16.2 °F 21.2 °F 82% 29.96 in 10.0 mi SSW 10.4 mph - N/A   Clear
6:11 AM 26.2 °F 16.4 °F 21.2 °F 81% 29.96 in 10.0 mi SSW 10.4 mph 16.1 mph N/A   Clear
6:31 AM 26.2 °F 15.8 °F 21.2 °F 81% 29.95 in 10.0 mi SSW 11.5 mph - N/A   Clear
6:51 AM 26.2 °F 15.8 °F 21.2 °F 81% 29.94 in 10.0 mi SSW 11.5 mph 16.1 mph N/A   Scattered Clouds
7:11 AM 26.8 °F 15.9 °F 22.1 °F 83% 29.94 in 10.0 mi South 12.7 mph 16.1 mph N/A   Mostly Cloudy
7:31 AM 27.5 °F 18.6 °F 22.6 °F 82% 29.93 in 10.0 mi South 9.2 mph - N/A   Overcast
7:51 AM 27.9 °F 18.4 °F 23.0 °F 82% 29.92 in 10.0 mi SSW 10.4 mph - N/A   Overcast
8:11 AM 28.0 °F 20.0 °F 23.5 °F 83% 29.92 in 10.0 mi SSW 8.1 mph - N/A   Overcast
8:32 AM 28.4 °F 21.2 °F 24.3 °F 84% 29.91 in 10.0 mi SSW 6.9 mph - N/A   Overcast
8:52 AM 29.1 °F 22.1 °F 25.2 °F 85% 29.91 in 10.0 mi SSW 6.9 mph - N/A   Overcast
9:12 AM 30.0 °F 23.2 °F 25.7 °F 84% 29.91 in 10.0 mi SSW 6.9 mph - N/A   Overcast
9:32 AM 30.2 °F 23.4 °F 26.2 °F 85% 29.91 in 10.0 mi SSW 6.9 mph - N/A   Overcast
9:52 AM 30.9 °F 25.2 °F 26.6 °F 84% 29.91 in 10.0 mi SSW 5.8 mph - N/A   Overcast
10:12 AM 31.8 °F 25.4 °F 27.5 °F 84% 29.91 in 10.0 mi SSW 6.9 mph - N/A   Overcast
10:32 AM 32.2 °F 24.4 °F 28.0 °F 85% 29.92 in 10.0 mi SW 9.2 mph - N/A   Overcast
10:52 AM 33.3 °F 27.1 °F 28.4 °F 82% 29.93 in 10.0 mi SW 6.9 mph - N/A   Overcast
11:13 AM 34.3 °F 27.7 °F 28.4 °F 79% 29.92 in 10.0 mi WSW 8.1 mph - N/A   Overcast
11:33 AM 34.9 °F 27.1 °F 28.4 °F 77% 29.91 in 10.0 mi West 10.4 mph - N/A   Overcast
11:53 AM 35.6 °F 28.0 °F 28.4 °F 75% 29.91 in 10.0 mi West 10.4 mph 16.1 mph N/A   Overcast
12:13 PM 35.2 °F 26.2 °F 28.0 °F 75% 29.90 in 10.0 mi West 13.8 mph 19.6 mph N/A   Overcast
12:33 PM 35.6 °F 26.6 °F 28.0 °F 74% 29.89 in 10.0 mi West 13.8 mph 18.4 mph N/A   Overcast
12:53 PM 35.2 °F 26.6 °F 27.7 °F 74% 29.88 in 10.0 mi West 12.7 mph 20.7 mph N/A   Overcast
1:13 PM 35.1 °F 25.9 °F 27.1 °F 73% 29.88 in 10.0 mi West 13.8 mph - N/A   Overcast
1:33 PM 34.9 °F 27.7 °F 27.5 °F 74% 29.87 in 10.0 mi West 9.2 mph - N/A   Overcast
1:54 PM 34.7 °F 25.5 °F 27.3 °F 74% 29.88 in 10.0 mi West 13.8 mph 19.6 mph N/A   Overcast
2:14 PM 34.2 °F 26.2 °F 26.8 °F 74% 29.88 in 10.0 mi West 10.4 mph 20.7 mph N/A   Overcast
2:34 PM 33.8 °F 25.8 °F 27.0 °F 76% 29.88 in 10.0 mi West 10.4 mph - N/A   Overcast
2:54 PM 33.4 °F 24.3 °F 26.6 °F 76% 29.89 in 10.0 mi West 12.7 mph 17.3 mph N/A   Overcast
3:14 PM 33.1 °F 25.5 °F 26.4 °F 77% 29.90 in 10.0 mi West 9.2 mph - N/A   Overcast
3:34 PM 32.5 °F 23.7 °F 26.2 °F 78% 29.91 in 10.0 mi West 11.5 mph 18.4 mph N/A   Overcast
3:54 PM 32.0 °F 22.1 °F 26.2 °F 79% 29.92 in 10.0 mi WNW 13.8 mph - N/A   Overcast
4:14 PM 31.6 °F 22.1 °F 25.7 °F 79% 29.93 in 10.0 mi West 12.7 mph 16.1 mph N/A   Overcast
4:34 PM 31.1 °F 21.4 °F 25.2 °F 79% 29.93 in 10.0 mi West 12.7 mph 19.6 mph N/A   Overcast
4:55 PM 30.7 °F 21.4 °F 24.8 °F 79% 29.93 in 10.0 mi West 11.5 mph - N/A   Overcast
5:35 PM 30.2 °F 21.9 °F 24.6 °F 80% 29.95 in 10.0 mi West 9.2 mph - N/A   Overcast
5:55 PM 30.2 °F 22.6 °F 24.6 °F 80% 29.96 in 10.0 mi West 8.1 mph - N/A   Overcast
6:15 PM 30.0 °F 21.1 °F 24.4 °F 80% 29.96 in 10.0 mi West 10.4 mph - N/A   Overcast
6:35 PM 29.8 °F 23.0 °F 23.5 °F 77% 29.96 in 10.0 mi WNW 6.9 mph - N/A   Overcast
6:55 PM 29.7 °F 22.0 °F 23.2 °F 77% 29.97 in 10.0 mi WNW 8.1 mph - N/A   Overcast
7:31 PM 29.3 °F 22.3 °F 22.3 °F 75% 29.99 in 10.0 mi West 6.9 mph - N/A   Overcast
8:11 PM 28.0 °F 18.6 °F 20.3 °F 73% 29.99 in 10.0 mi NW 10.4 mph - N/A   Overcast
8:31 PM 27.5 °F 18.6 °F 18.5 °F 69% 30.00 in 10.0 mi NW 9.2 mph 17.3 mph N/A   Overcast
8:51 PM 27.3 °F 17.7 °F 15.8 °F 62% 30.00 in 10.0 mi NW 10.4 mph - N/A   Overcast
9:11 PM 27.1 °F 18.9 °F 15.6 °F 62% 30.01 in 10.0 mi WNW 8.1 mph - N/A   Overcast
9:31 PM 27.3 °F 20.9 °F 16.7 °F 64% 30.01 in 10.0 mi West 5.8 mph - N/A   Overcast
9:51 PM 27.1 °F 20.7 °F 16.9 °F 65% 30.01 in 10.0 mi WNW 5.8 mph - N/A   Overcast
10:11 PM 27.0 °F 20.5 °F 17.4 °F 67% 30.01 in 10.0 mi WNW 5.8 mph - N/A   Overcast
10:32 PM 26.6 °F 20.0 °F 18.0 °F 70% 30.01 in 10.0 mi WNW 5.8 mph - N/A   Overcast
10:52 PM 26.1 °F 15.0 °F 16.7 °F 68% 30.02 in 10.0 mi NNW 12.7 mph - N/A   Overcast
11:12 PM 24.8 °F 15.3 °F 15.4 °F 68% 30.03 in 10.0 mi NW 9.2 mph - N/A   Overcast
11:32 PM 24.8 °F 15.3 °F 14.4 °F 65% 30.03 in 10.0 mi NW 9.2 mph - N/A   Overcast
11:51 PM 24.8 °F 16.1 °F 13.6 °F 63% 30.03 in 10.0 mi NW 8.1 mph - N/A   Overcast